�������l�o���
Date,Time,MP-1(��Sv/h),MP-2(��Sv/h),MP-3(��Sv/h),MP-4(��Sv/h),MP-5(��Sv/h),MP-6(��Sv/h),MP-7(��Sv/h),����,����(m/s),���J
2017/03/24,00:00,0.386,0.233,0.396,0.363,0.331,0.193,0.162,�k�k��,1.7,��
2017/03/24,00:10,0.388,0.234,0.396,0.363,0.332,0.193,0.163,�k�k��,2.8,��
2017/03/24,00:20,0.387,0.231,0.396,0.364,0.331,0.193,0.163,�k,4.9,��
2017/03/24,00:30,0.386,0.232,0.395,0.363,0.332,0.193,0.163,�k,4.8,��
2017/03/24,00:40,0.388,0.233,0.395,0.365,0.331,0.193,0.163,�k,6.3,��
2017/03/24,00:50,0.387,0.231,0.396,0.364,0.331,0.192,0.164,�k,6.0,��
2017/03/24,01:00,0.385,0.233,0.394,0.363,0.332,0.192,0.163,�k�k��,1.2,��
2017/03/24,01:10,0.386,0.232,0.394,0.364,0.332,0.192,0.163,�k,3.7,��
2017/03/24,01:20,0.386,0.232,0.394,0.365,0.333,0.193,0.163,�k,4.5,��
2017/03/24,01:30,0.387,0.233,0.395,0.364,0.333,0.193,0.163,�k,5.6,��
2017/03/24,01:40,0.387,0.233,0.396,0.364,0.332,0.193,0.164,�k,4.9,��
2017/03/24,01:50,0.387,0.233,0.394,0.363,0.332,0.193,0.163,�k,4.0,��
2017/03/24,02:00,0.386,0.232,0.395,0.364,0.333,0.193,0.164,�k,3.6,��
2017/03/24,02:10,0.388,0.232,0.395,0.364,0.332,0.193,0.163,�k,4.7,��
2017/03/24,02:20,0.386,0.232,0.394,0.363,0.333,0.193,0.162,�k,5.0,��
2017/03/24,02:30,0.386,0.233,0.396,0.364,0.332,0.193,0.163,�k,4.7,��
2017/03/24,02:40,0.386,0.232,0.394,0.364,0.331,0.193,0.163,�k,4.0,��
2017/03/24,02:50,0.385,0.233,0.395,0.364,0.332,0.192,0.163,�k,2.8,��
2017/03/24,03:00,0.387,0.232,0.394,0.363,0.333,0.192,0.163,�k,3.2,��
2017/03/24,03:10,0.387,0.232,0.394,0.363,0.333,0.194,0.163,�k,3.3,��
2017/03/24,03:20,0.387,0.233,0.396,0.364,0.332,0.193,0.163,�k,4.8,��
2017/03/24,03:30,0.386,0.232,0.393,0.364,0.332,0.192,0.163,�k,4.5,��
2017/03/24,03:40,0.387,0.234,0.394,0.364,0.333,0.192,0.163,�k,3.4,��
2017/03/24,03:50,0.387,0.233,0.396,0.364,0.331,0.193,0.163,�k�k��,3.6,��
2017/03/24,04:00,0.387,0.233,0.394,0.364,0.333,0.194,0.163,�k,4.6,��
2017/03/24,04:10,0.386,0.233,0.394,0.363,0.333,0.194,0.163,�k,3.9,��
2017/03/24,04:20,0.386,0.234,0.395,0.363,0.332,0.193,0.163,�k�k��,6.0,��
2017/03/24,04:30,0.386,0.233,0.394,0.363,0.331,0.194,0.163,�k,6.9,��
2017/03/24,04:40,0.386,0.233,0.395,0.362,0.332,0.193,0.163,�k,7.8,��
2017/03/24,04:50,0.387,0.232,0.395,0.364,0.333,0.193,0.163,�k,8.4,��
2017/03/24,05:00,0.387,0.233,0.395,0.365,0.333,0.192,0.163,�k,8.3,��
2017/03/24,05:10,0.385,0.232,0.396,0.365,0.330,0.193,0.164,�k,7.4,��
2017/03/24,05:20,0.386,0.234,0.394,0.362,0.331,0.193,0.164,�k,7.1,��
2017/03/24,05:30,0.386,0.232,0.395,0.364,0.332,0.193,0.164,�k,5.2,��
2017/03/24,05:40,0.386,0.235,0.395,0.363,0.332,0.192,0.163,�k,5.6,��
2017/03/24,05:50,0.387,0.233,0.394,0.363,0.333,0.194,0.164,�k,6.6,��
2017/03/24,06:00,0.386,0.233,0.395,0.364,0.332,0.193,0.162,�k,8.4,��
2017/03/24,06:10,0.386,0.233,0.395,0.364,0.333,0.193,0.162,�k,7.5,��
2017/03/24,06:20,0.387,0.233,0.395,0.363,0.330,0.194,0.163,�k,6.4,��
2017/03/24,06:30,0.385,0.233,0.395,0.364,0.331,0.194,0.162,�k,7.0,��
2017/03/24,06:40,0.386,0.231,0.395,0.364,0.332,0.194,0.163,�k�k��,5.3,��
2017/03/24,06:50,0.386,0.234,0.396,0.363,0.331,0.193,0.162,�k�k��,4.9,��
2017/03/24,07:00,0.388,0.232,0.397,0.363,0.332,0.192,0.162,�k�k��,4.7,��
2017/03/24,07:10,0.386,0.233,0.394,0.362,0.331,0.193,0.164,�k�k��,6.4,��
2017/03/24,07:20,0.386,0.231,0.394,0.362,0.333,0.193,0.164,�k�k��,4.7,��
2017/03/24,07:30,0.385,0.233,0.393,0.362,0.332,0.193,0.162,�k�k��,6.1,��
2017/03/24,07:40,0.386,0.233,0.394,0.362,0.330,0.191,0.162,�k�k��,5.1,��
2017/03/24,07:50,0.386,0.232,0.395,0.362,0.331,0.192,0.163,�k,5.9,��
2017/03/24,08:00,0.386,0.233,0.395,0.364,0.332,0.194,0.163,�k,7.3,��
2017/03/24,08:10,0.387,0.231,0.393,0.362,0.332,0.193,0.162,�k,6.3,��
2017/03/24,08:20,0.385,0.233,0.394,0.363,0.332,0.192,0.162,�k�k��,5.5,��
2017/03/24,08:30,0.387,0.232,0.395,0.364,0.333,0.193,0.162,�k,5.0,��
2017/03/24,08:40,0.389,0.230,0.393,0.360,0.333,0.192,0.162,�k,4.7,��
2017/03/24,08:50,0.386,0.232,0.392,0.362,0.331,0.191,0.161,�k�k��,4.5,��
2017/03/24,09:00,0.386,0.233,0.394,0.362,0.331,0.191,0.164,�k,4.5,��
2017/03/24,09:10,0.384,0.232,0.394,0.361,0.333,0.192,0.163,�k,6.0,��
2017/03/24,09:20,0.385,0.233,0.393,0.361,0.331,0.192,0.162,�k�k��,10.3,�L
2017/03/24,09:30,0.386,0.232,0.393,0.362,0.332,0.192,0.162,�k�k��,8.0,�L
2017/03/24,09:40,0.386,0.231,0.395,0.363,0.332,0.192,0.163,�k�k��,6.2,�L
2017/03/24,09:50,0.387,0.233,0.395,0.364,0.332,0.193,0.163,�k��,4.5,��
2017/03/24,10:00,0.387,0.232,0.395,0.363,0.334,0.192,0.164,�k�k��,4.9,��
2017/03/24,10:10,0.386,0.231,0.395,0.364,0.333,0.192,0.163,�k,6.0,��
2017/03/24,10:20,0.386,0.227,0.395,0.361,0.331,0.192,0.162,�k,7.0,�L
2017/03/24,10:30,0.385,0.231,0.394,0.363,0.333,0.193,0.163,�k�k��,5.9,��
2017/03/24,10:40,0.385,0.232,0.392,0.363,0.333,0.191,0.164,�k,6.8,�L
2017/03/24,10:50,0.388,0.232,0.381,0.362,0.332,0.193,0.162,�k,7.3,�L
2017/03/24,11:00,0.386,0.234,0.383,0.365,0.333,0.192,0.164,�k�k��,6.4,��
2017/03/24,11:10,0.386,0.233,0.394,0.364,0.333,0.192,0.163,�k�k��,6.1,��
2017/03/24,11:20,0.387,0.232,0.393,0.366,0.332,0.193,0.164,�k�k��,6.1,�L
2017/03/24,11:30,0.386,0.233,0.395,0.366,0.335,0.193,0.163,�k�k��,5.5,�L
2017/03/24,11:40,0.387,0.235,0.393,0.364,0.332,0.193,0.164,�k��,3.9,��
2017/03/24,11:50,0.385,0.233,0.394,0.366,0.333,0.192,0.163,�k,5.5,��
2017/03/24,12:00,0.387,0.233,0.391,0.363,0.331,0.193,0.162,�k,3.8,��
2017/03/24,12:10,0.385,0.233,0.393,0.362,0.332,0.192,0.164,�k�k��,4.6,��
2017/03/24,12:20,0.386,0.232,0.392,0.363,0.330,0.192,0.162,�k,6.4,��
2017/03/24,12:30,0.385,0.231,0.392,0.363,0.331,0.193,0.163,�k�k��,8.3,��
2017/03/24,12:40,0.386,0.233,0.396,0.363,0.333,0.192,0.163,�k�k��,5.1,��
2017/03/24,12:50,0.387,0.233,0.394,0.365,0.333,0.192,0.163,���k��,7.5,��
2017/03/24,13:00,0.386,0.233,0.394,0.364,0.334,0.192,0.164,��,7.3,�L
2017/03/24,13:10,0.386,0.233,0.395,0.366,0.335,0.192,0.164,��,7.2,�L
2017/03/24,13:20,0.389,0.234,0.396,0.367,0.334,0.193,0.164,���k��,5.9,�L
2017/03/24,13:30,0.387,0.234,0.394,0.365,0.333,0.192,0.164,��,3.6,��
2017/03/24,13:40,0.388,0.233,0.396,0.365,0.335,0.193,0.164,��,6.3,�L
2017/03/24,13:50,0.389,0.232,0.396,0.367,0.333,0.194,0.165,��,5.7,��
2017/03/24,14:00,0.388,0.233,0.394,0.364,0.334,0.193,0.165,��,4.2,��
2017/03/24,14:10,0.386,0.233,0.395,0.366,0.331,0.194,0.164,��,3.9,�L
2017/03/24,14:20,0.388,0.233,0.395,0.365,0.331,0.193,0.163,���k��,4.8,�L
2017/03/24,14:30,0.387,0.234,0.394,0.364,0.334,0.193,0.163,��,3.7,��
2017/03/24,14:40,0.387,0.232,0.396,0.364,0.330,0.192,0.164,���k��,5.3,�L
2017/03/24,14:50,0.385,0.233,0.393,0.364,0.333,0.194,0.163,�k��,5.9,�L
2017/03/24,15:00,0.385,0.233,0.395,0.366,0.331,0.193,0.164,�k��,6.8,��
2017/03/24,15:10,0.386,0.232,0.395,0.364,0.334,0.192,0.163,���k��,6.4,��
2017/03/24,15:20,0.386,0.233,0.393,0.365,0.332,0.194,0.163,�k��,4.2,��
2017/03/24,15:30,0.387,0.232,0.398,0.366,0.333,0.192,0.164,���k��,4.0,��
2017/03/24,15:40,0.389,0.233,0.396,0.366,0.332,0.193,0.164,���k��,3.7,��
2017/03/24,15:50,0.385,0.233,0.394,0.367,0.333,0.192,0.163,���k��,4.4,��
2017/03/24,16:00,0.387,0.234,0.395,0.367,0.333,0.193,0.163,���k��,3.4,��
2017/03/24,16:10,0.389,0.234,0.396,0.363,0.332,0.194,0.164,���k��,3.4,��
2017/03/24,16:20,0.387,0.234,0.394,0.364,0.331,0.193,0.163,��,3.7,��
2017/03/24,16:30,0.388,0.232,0.396,0.366,0.332,0.191,0.163,���k��,3.0,��
2017/03/24,16:40,0.387,0.234,0.396,0.365,0.332,0.192,0.163,��,2.3,��
2017/03/24,16:50,0.387,0.234,0.393,0.364,0.334,0.192,0.164,�k��,1.6,��
2017/03/24,17:00,0.387,0.233,0.395,0.365,0.333,0.192,0.164,�k�k��,2.2,��
2017/03/24,17:10,0.389,0.234,0.397,0.365,0.333,0.192,0.164,-,CALM,��
2017/03/24,17:20,0.388,0.232,0.395,0.365,0.334,0.193,0.163,�k�k��,1.1,��
2017/03/24,17:30,0.387,0.233,0.395,0.364,0.331,0.193,0.163,���k��,2.0,��
2017/03/24,17:40,0.387,0.233,0.396,0.364,0.333,0.193,0.163,���k��,4.2,��
2017/03/24,17:50,0.388,0.233,0.396,0.365,0.334,0.191,0.163,��,6.2,��
2017/03/24,18:00,0.388,0.233,0.395,0.365,0.332,0.192,0.164,��,6.0,��
2017/03/24,18:10,0.387,0.233,0.395,0.366,0.333,0.193,0.163,��,3.6,��
2017/03/24,18:20,0.387,0.233,0.396,0.366,0.331,0.192,0.163,��,5.5,��
2017/03/24,18:30,0.387,0.233,0.398,0.364,0.334,0.194,0.164,��,5.0,��
2017/03/24,18:40,0.386,0.233,0.396,0.365,0.334,0.193,0.164,��,5.8,��
2017/03/24,18:50,0.388,0.234,0.394,0.364,0.332,0.193,0.163,��,6.9,��
2017/03/24,19:00,0.387,0.232,0.396,0.365,0.332,0.194,0.164,���k��,6.2,��
2017/03/24,19:10,0.389,0.234,0.397,0.364,0.330,0.193,0.164,���k��,5.3,��
2017/03/24,19:20,0.387,0.233,0.397,0.366,0.332,0.193,0.163,��,4.6,��
2017/03/24,19:30,0.387,0.233,0.395,0.364,0.332,0.193,0.163,��,5.0,��
2017/03/24,19:40,0.387,0.233,0.396,0.366,0.332,0.193,0.164,���k��,4.0,��
2017/03/24,19:50,0.387,0.233,0.395,0.365,0.333,0.193,0.163,���k��,4.2,��
2017/03/24,20:00,0.389,0.234,0.396,0.365,0.332,0.192,0.164,���k��,5.3,��
2017/03/24,20:10,0.388,0.234,0.394,0.365,0.334,0.194,0.163,�k��,5.9,��
2017/03/24,20:20,0.388,0.233,0.397,0.365,0.332,0.193,0.163,���k��,5.9,��
2017/03/24,20:30,0.388,0.233,0.396,0.365,0.333,0.193,0.163,�k��,5.3,��
2017/03/24,20:40,0.388,0.234,0.397,0.365,0.333,0.194,0.163,�k��,6.4,��
2017/03/24,20:50,0.389,0.233,0.395,0.365,0.333,0.193,0.163,�k��,5.3,��
2017/03/24,21:00,0.387,0.234,0.397,0.367,0.331,0.192,0.162,���k��,5.4,��
2017/03/24,21:10,0.387,0.234,0.396,0.365,0.331,0.193,0.164,�k��,4.2,��
2017/03/24,21:20,0.389,0.233,0.397,0.364,0.332,0.194,0.163,�k��,3.9,��
2017/03/24,21:30,0.388,0.233,0.396,0.364,0.332,0.193,0.163,�k��,5.3,��
2017/03/24,21:40,0.387,0.233,0.397,0.366,0.331,0.193,0.163,�k��,3.9,��
2017/03/24,21:50,0.387,0.233,0.395,0.367,0.331,0.192,0.163,���k��,5.0,��
2017/03/24,22:00,0.387,0.234,0.395,0.365,0.331,0.193,0.163,�k��,5.3,��
2017/03/24,22:10,0.388,0.234,0.397,0.364,0.332,0.194,0.164,�k��,5.2,��
2017/03/24,22:20,0.388,0.233,0.397,0.364,0.333,0.193,0.163,���k��,5.0,��
2017/03/24,22:30,0.388,0.234,0.395,0.366,0.332,0.192,0.164,���k��,6.1,��
2017/03/24,22:40,0.388,0.234,0.395,0.365,0.333,0.193,0.163,���k��,4.7,��
2017/03/24,22:50,0.388,0.233,0.395,0.364,0.331,0.194,0.164,���k��,3.6,��
2017/03/24,23:00,0.389,0.233,0.396,0.364,0.331,0.194,0.164,-,CALM,��
2017/03/24,23:10,0.389,0.233,0.397,0.366,0.332,0.194,0.164,���쐼,0.9,��
2017/03/24,23:20,0.388,0.235,0.396,0.366,0.333,0.193,0.163,���쐼,0.8,��
2017/03/24,23:30,0.387,0.235,0.397,0.365,0.331,0.193,0.164,�쐼,1.0,��
2017/03/24,23:40,0.387,0.232,0.397,0.364,0.332,0.193,0.164,�쐼,3.6,��
2017/03/24,23:50,0.387,0.232,0.397,0.365,0.333,0.192,0.164,�쐼,3.1,��
